Time,TemperatureF,DewpointF,PressureIn,WindDirection,WindDirectionDegrees,WindSpeedMPH,WindSpeedGustMPH,Humidity,HourlyPrecipIn,Conditions,Clouds,dailyrainin,SolarRadiationWatts/m^2,SoftwareType,DateUTC
2015-07-30 00:01:00,63.9,58.0,29.94,NW,306,3.5,0.0,81,0.00,CLR,,0.00,0.0,WeatherDisplay:10.37,2015-07-30 07:01:00,
2015-07-30 00:06:00,63.7,57.8,29.94,NW,306,0.0,0.0,81,0.00,CLR,,0.00,0.0,WeatherDisplay:10.37,2015-07-30 07:06:00,
2015-07-30 00:16:00,63.7,57.8,29.94,NW,306,0.0,0.0,81,0.00,CLR,,0.00,0.0,WeatherDisplay:10.37,2015-07-30 07:16:00,
2015-07-30 00:21:00,63.7,57.8,29.94,NW,306,1.2,0.0,81,0.00,CLR,,0.00,0.0,WeatherDisplay:10.37,2015-07-30 07:21:00,
2015-07-30 00:26:00,63.7,57.8,29.94,NW,306,0.0,0.0,81,0.00,CLR,,0.00,0.0,WeatherDisplay:10.37,2015-07-30 07:26:00,
2015-07-30 00:31:00,63.7,57.8,29.94,NW,306,2.3,2.3,81,0.00,CLR,,0.00,0.0,WeatherDisplay:10.37,2015-07-30 07:31:00,
2015-07-30 00:36:00,63.5,57.6,29.94,NW,306,0.0,0.0,81,0.00,CLR,,0.00,0.0,WeatherDisplay:10.37,2015-07-30 07:36:00,
2015-07-30 00:41:00,63.5,57.6,29.94,NW,306,2.3,2.3,81,0.00,CLR,,0.00,0.0,WeatherDisplay:10.37,2015-07-30 07:41:00,
2015-07-30 00:46:00,63.5,57.9,29.94,NW,306,0.0,0.0,82,0.00,CLR,,0.00,0.0,WeatherDisplay:10.37,2015-07-30 07:46:00,
2015-07-30 00:52:00,63.5,57.9,29.94,NW,306,0.0,0.0,82,0.00,CLR,,0.00,0.0,WeatherDisplay:10.37,2015-07-30 07:52:00,
2015-07-30 00:57:00,63.5,57.9,29.94,NW,306,0.0,0.0,82,0.00,CLR,,0.00,0.0,WeatherDisplay:10.37,2015-07-30 07:57:00,
2015-07-30 01:02:00,63.5,57.9,29.94,NW,306,0.0,0.0,82,0.00,CLR,,0.00,0.0,WeatherDisplay:10.37,2015-07-30 08:02:00,
2015-07-30 01:07:00,63.4,57.8,29.94,NW,306,0.0,0.0,82,0.00,CLR,,0.00,0.0,WeatherDisplay:10.37,2015-07-30 08:07:00,
2015-07-30 01:12:00,63.4,57.8,29.94,NW,306,0.0,0.0,82,0.00,CLR,,0.00,0.0,WeatherDisplay:10.37,2015-07-30 08:12:00,
2015-07-30 01:17:00,63.4,57.8,29.95,NW,306,0.0,0.0,82,0.00,CLR,,0.00,0.0,WeatherDisplay:10.37,2015-07-30 08:17:00,
2015-07-30 01:22:00,63.2,57.9,29.95,NW,306,1.2,0.0,83,0.00,CLR,,0.00,0.0,WeatherDisplay:10.37,2015-07-30 08:22:00,
2015-07-30 01:27:00,63.2,57.9,29.95,NW,306,0.0,0.0,83,0.00,CLR,,0.00,0.0,WeatherDisplay:10.37,2015-07-30 08:27:00,
2015-07-30 01:32:00,63.2,57.9,29.95,NW,306,1.2,1.2,83,0.00,CLR,,0.00,0.0,WeatherDisplay:10.37,2015-07-30 08:32:00,
2015-07-30 01:37:00,63.2,57.9,29.95,NW,306,0.0,0.0,83,0.00,CLR,,0.00,0.0,WeatherDisplay:10.37,2015-07-30 08:37:00,
2015-07-30 01:42:00,63.2,57.9,29.95,NW,306,2.3,2.3,83,0.00,CLR,,0.00,0.0,WeatherDisplay:10.37,2015-07-30 08:42:00,
2015-07-30 01:47:00,63.2,57.9,29.94,NW,306,3.5,3.5,83,0.00,CLR,,0.00,0.0,WeatherDisplay:10.37,2015-07-30 08:47:00,
2015-07-30 01:52:00,63.2,57.9,29.94,NW,306,3.5,3.5,83,0.00,CLR,,0.00,0.0,WeatherDisplay:10.37,2015-07-30 08:52:00,
2015-07-30 01:57:00,63.2,57.9,29.94,NW,306,0.0,0.0,83,0.00,CLR,,0.00,0.0,WeatherDisplay:10.37,2015-07-30 08:57:00,
2015-07-30 02:02:00,63.2,57.9,29.95,NW,306,0.0,0.0,83,0.00,CLR,,0.00,0.0,WeatherDisplay:10.37,2015-07-30 09:02:00,
2015-07-30 02:07:00,63.2,57.9,29.95,NW,306,3.5,3.5,83,0.00,CLR,,0.00,0.0,WeatherDisplay:10.37,2015-07-30 09:07:00,
2015-07-30 02:12:00,63.1,57.9,29.95,NW,306,3.5,3.5,83,0.00,CLR,,0.00,0.0,WeatherDisplay:10.37,2015-07-30 09:12:00,
2015-07-30 02:17:00,63.1,57.9,29.95,NW,306,3.5,3.5,83,0.00,CLR,,0.00,0.0,WeatherDisplay:10.37,2015-07-30 09:17:00,
2015-07-30 02:22:00,63.1,57.9,29.95,NW,306,0.0,0.0,83,0.00,CLR,,0.00,0.0,WeatherDisplay:10.37,2015-07-30 09:22:00,
2015-07-30 02:27:00,63.1,57.9,29.95,NW,306,3.5,3.5,83,0.00,CLR,,0.00,0.0,WeatherDisplay:10.37,2015-07-30 09:27:00,
2015-07-30 02:32:00,62.9,58.0,29.94,NW,306,3.5,3.5,84,0.00,SCT,,0.00,0.0,WeatherDisplay:10.37,2015-07-30 09:32:00,
2015-07-30 02:37:00,62.9,58.0,29.94,NW,305,1.2,1.2,84,0.00,SCT,,0.00,0.0,WeatherDisplay:10.37,2015-07-30 09:37:00,
2015-07-30 02:42:00,62.7,57.8,29.94,NW,306,0.0,0.0,84,0.00,SCT,,0.00,0.0,WeatherDisplay:10.37,2015-07-30 09:42:00,
2015-07-30 02:47:00,62.7,57.8,29.95,NW,305,5.8,5.8,84,0.00,SCT,,0.00,0.0,WeatherDisplay:10.37,2015-07-30 09:47:00,
2015-07-30 02:52:00,62.6,58.0,29.95,NW,305,0.0,0.0,85,0.00,SCT,,0.00,0.0,WeatherDisplay:10.37,2015-07-30 09:52:00,
2015-07-30 02:57:00,62.6,58.0,29.95,NW,305,0.0,0.0,85,0.00,SCT,,0.00,0.0,WeatherDisplay:10.37,2015-07-30 09:57:00,
2015-07-30 03:02:00,62.6,58.0,29.95,NW,305,2.3,2.3,85,0.00,SCT,,0.00,0.0,WeatherDisplay:10.37,2015-07-30 10:02:00,
2015-07-30 03:07:00,62.4,57.8,29.95,NW,305,0.0,0.0,85,0.00,SCT,,0.00,0.0,WeatherDisplay:10.37,2015-07-30 10:07:00,
2015-07-30 03:12:00,62.4,57.8,29.95,NW,305,0.0,0.0,85,0.00,BKN,,0.00,0.0,WeatherDisplay:10.37,2015-07-30 10:12:00,
2015-07-30 03:17:00,62.4,57.8,29.95,NW,305,0.0,0.0,85,0.00,BKN,,0.00,0.0,WeatherDisplay:10.37,2015-07-30 10:17:00,
2015-07-30 03:22:00,62.3,57.7,29.95,NW,305,5.8,5.8,85,0.00,BKN,,0.00,0.0,WeatherDisplay:10.37,2015-07-30 10:22:00,
2015-07-30 03:27:00,62.3,57.7,29.95,NW,305,0.0,0.0,85,0.00,BKN,,0.00,0.0,WeatherDisplay:10.37,2015-07-30 10:27:00,
2015-07-30 03:32:00,62.1,57.5,29.95,NW,305,0.0,0.0,85,0.00,SCT,,0.00,0.0,WeatherDisplay:10.37,2015-07-30 10:32:00,
2015-07-30 03:37:00,62.1,57.5,29.95,NW,305,0.0,0.0,85,0.00,SCT,,0.00,0.0,WeatherDisplay:10.37,2015-07-30 10:37:00,
2015-07-30 03:42:00,62.1,57.5,29.95,NW,305,0.0,0.0,85,0.00,SCT,,0.00,0.0,WeatherDisplay:10.37,2015-07-30 10:42:00,
2015-07-30 03:47:00,62.1,57.5,29.95,NW,305,0.0,0.0,85,0.00,SCT,,0.00,0.0,WeatherDisplay:10.37,2015-07-30 10:47:00,
2015-07-30 03:52:00,62.1,57.9,29.95,NW,305,3.5,3.5,86,0.00,BKN,,0.00,0.0,WeatherDisplay:10.37,2015-07-30 10:52:00,
2015-07-30 03:57:00,62.1,57.9,29.95,NW,305,3.5,0.0,86,0.00,BKN,,0.00,0.0,WeatherDisplay:10.37,2015-07-30 10:57:00,
2015-07-30 04:02:00,62.1,57.9,29.94,NW,305,4.6,4.6,86,0.00,BKN,,0.00,0.0,WeatherDisplay:10.37,2015-07-30 11:02:00,
2015-07-30 04:07:00,62.1,57.9,29.94,NW,305,3.0,3.0,86,0.00,BKN,,0.00,0.0,WeatherDisplay:10.37,2015-07-30 11:07:00,
2015-07-30 04:12:00,62.0,57.8,29.94,NW,305,3.5,0.0,86,0.00,OVC,,0.00,0.0,WeatherDisplay:10.37,2015-07-30 11:12:00,
2015-07-30 04:17:00,62.0,57.8,29.95,NW,305,0.0,0.0,86,0.00,OVC,,0.00,0.0,WeatherDisplay:10.37,2015-07-30 11:17:00,
2015-07-30 04:27:00,62.0,57.8,29.95,NW,305,0.0,0.0,86,0.00,OVC,,0.00,0.0,WeatherDisplay:10.37,2015-07-30 11:27:00,
2015-07-30 04:32:00,62.0,57.8,29.95,NW,305,2.0,2.0,86,0.00,OVC,,0.00,0.0,WeatherDisplay:10.37,2015-07-30 11:32:00,
2015-07-30 04:37:00,62.0,57.8,29.95,NW,305,4.6,4.6,86,0.00,OVC,,0.00,0.0,WeatherDisplay:10.37,2015-07-30 11:37:00,
2015-07-30 04:47:00,62.1,57.9,29.95,NW,305,3.5,3.5,86,0.00,OVC,,0.00,0.0,WeatherDisplay:10.37,2015-07-30 11:47:00,
2015-07-30 04:52:00,62.1,57.9,29.95,WNW,299,5.8,5.8,86,0.00,OVC,,0.00,0.0,WeatherDisplay:10.37,2015-07-30 11:52:00,
2015-07-30 04:57:00,62.1,58.2,29.95,WNW,299,3.5,3.5,87,0.00,OVC,,0.00,0.0,WeatherDisplay:10.37,2015-07-30 11:57:00,
2015-07-30 05:02:00,62.1,58.2,29.95,WNW,299,3.5,3.5,87,0.00,OVC,,0.00,0.0,WeatherDisplay:10.37,2015-07-30 12:02:00,
2015-07-30 05:12:00,62.3,58.4,29.95,WNW,299,0.0,0.0,87,0.00,OVC,,0.00,0.0,WeatherDisplay:10.37,2015-07-30 12:12:00,
2015-07-30 05:17:00,62.1,58.2,29.96,WNW,301,9.2,9.2,87,0.00,OVC,,0.00,0.0,WeatherDisplay:10.37,2015-07-30 12:17:00,
2015-07-30 05:22:00,62.1,58.2,29.96,WNW,302,4.6,4.6,87,0.00,OVC,,0.00,0.0,WeatherDisplay:10.37,2015-07-30 12:22:00,
2015-07-30 05:27:00,62.1,58.2,29.96,WNW,302,3.5,3.5,87,0.00,OVC,,0.00,0.0,WeatherDisplay:10.37,2015-07-30 12:27:00,
2015-07-30 05:32:00,62.1,58.2,29.96,WNW,302,3.5,3.5,87,0.00,OVC,,0.00,0.0,WeatherDisplay:10.37,2015-07-30 12:32:00,
2015-07-30 05:37:00,62.1,58.2,29.96,NW,306,3.5,3.5,87,0.00,OVC,,0.00,0.0,WeatherDisplay:10.37,2015-07-30 12:37:00,
2015-07-30 05:42:00,62.1,58.2,29.96,NW,318,4.6,4.6,87,0.00,OVC,,0.00,0.0,WeatherDisplay:10.37,2015-07-30 12:42:00,
2015-07-30 05:47:00,62.1,58.2,29.97,NW,318,3.5,0.0,87,0.00,OVC,,0.00,0.0,WeatherDisplay:10.37,2015-07-30 12:47:00,
2015-07-30 05:57:00,62.1,58.2,29.97,NW,318,0.0,0.0,87,0.00,OVC,,0.00,0.0,WeatherDisplay:10.37,2015-07-30 12:57:00,
2015-07-30 06:02:00,62.3,58.4,29.97,NW,318,2.3,2.3,87,0.00,OVC,,0.00,0.0,WeatherDisplay:10.37,2015-07-30 13:02:00,
2015-07-30 06:07:00,62.3,58.4,29.97,NW,318,4.6,4.6,87,0.00,OVC,,0.00,0.0,WeatherDisplay:10.37,2015-07-30 13:07:00,
2015-07-30 06:12:00,62.3,58.4,29.97,NW,318,0.0,0.0,87,0.00,OVC,,0.00,0.0,WeatherDisplay:10.37,2015-07-30 13:12:00,
2015-07-30 06:17:00,62.3,58.4,29.98,NW,318,2.3,2.3,87,0.00,OVC,,0.00,0.0,WeatherDisplay:10.37,2015-07-30 13:17:00,
2015-07-30 06:22:00,62.3,58.4,29.98,NW,318,1.2,0.0,87,0.00,OVC,,0.00,5.0,WeatherDisplay:10.37,2015-07-30 13:22:00,
2015-07-30 06:27:00,62.4,58.5,29.98,NW,326,5.0,5.0,87,0.00,OVC,,0.00,7.0,WeatherDisplay:10.37,2015-07-30 13:27:00,
2015-07-30 06:32:00,62.4,58.5,29.98,NNW,327,3.5,3.5,87,0.00,OVC,,0.00,11.0,WeatherDisplay:10.37,2015-07-30 13:32:00,
2015-07-30 06:37:00,62.4,58.5,29.98,NW,326,0.0,0.0,87,0.00,OVC,,0.00,12.0,WeatherDisplay:10.37,2015-07-30 13:37:00,
2015-07-30 06:42:00,62.6,58.7,29.98,NNW,327,0.0,0.0,87,0.00,OVC,,0.00,12.0,WeatherDisplay:10.37,2015-07-30 13:42:00,
2015-07-30 06:47:00,62.6,58.7,29.98,NNW,327,0.0,0.0,87,0.00,OVC,,0.00,14.0,WeatherDisplay:10.37,2015-07-30 13:47:00,
2015-07-30 06:52:00,62.7,58.5,29.98,NNW,327,0.0,0.1,86,0.00,OVC,,0.00,28.0,WeatherDisplay:10.37,2015-07-30 13:52:00,
2015-07-30 07:02:00,62.7,58.5,29.99,NNW,339,1.2,0.0,86,0.00,OVC,,0.00,26.0,WeatherDisplay:10.37,2015-07-30 14:02:00,
2015-07-30 07:07:00,62.7,58.5,29.99,NNW,339,3.5,0.0,86,0.00,OVC,,0.00,33.0,WeatherDisplay:10.37,2015-07-30 14:07:00,
2015-07-30 07:12:00,62.9,58.6,29.99,NNW,339,0.0,0.0,86,0.00,OVC,,0.00,42.0,WeatherDisplay:10.37,2015-07-30 14:12:00,
2015-07-30 07:17:00,62.9,58.6,30.00,NNW,340,0.0,0.0,86,0.00,OVC,,0.00,25.0,WeatherDisplay:10.37,2015-07-30 14:17:00,
2015-07-30 07:22:00,63.1,58.8,30.00,NNW,339,0.0,0.0,86,0.00,OVC,,0.00,25.0,WeatherDisplay:10.37,2015-07-30 14:22:00,
2015-07-30 07:27:00,63.1,58.8,30.00,NNW,339,0.0,0.0,86,0.00,OVC,,0.00,56.0,WeatherDisplay:10.37,2015-07-30 14:27:00,
2015-07-30 07:32:00,63.1,58.8,30.00,NNW,340,0.0,0.0,86,0.00,OVC,,0.00,62.0,WeatherDisplay:10.37,2015-07-30 14:32:00,
2015-07-30 07:42:00,63.2,58.6,30.00,NNW,339,0.0,0.0,85,0.00,OVC,,0.00,72.0,WeatherDisplay:10.37,2015-07-30 14:42:00,
2015-07-30 07:47:00,63.4,58.8,30.00,NNW,340,0.0,0.3,85,0.00,OVC,,0.00,84.0,WeatherDisplay:10.37,2015-07-30 14:47:00,
2015-07-30 07:52:00,63.4,58.8,30.00,NNW,339,1.2,1.2,85,0.00,OVC,,0.00,93.0,WeatherDisplay:10.37,2015-07-30 14:52:00,
2015-07-30 07:57:00,63.4,58.8,30.00,NNW,340,0.0,0.0,85,0.00,OVC,,0.00,93.0,WeatherDisplay:10.37,2015-07-30 14:57:00,
2015-07-30 08:02:00,63.5,58.9,30.01,NNW,339,0.0,0.9,85,0.00,OVC,,0.00,90.0,WeatherDisplay:10.37,2015-07-30 15:02:00,
2015-07-30 08:07:00,63.7,58.8,30.01,NNW,340,0.0,0.0,84,0.00,OVC,,0.00,98.0,WeatherDisplay:10.37,2015-07-30 15:07:00,
2015-07-30 08:12:00,63.9,59.0,30.01,NNW,339,4.0,4.0,84,0.00,OVC,,0.00,104.0,WeatherDisplay:10.37,2015-07-30 15:12:00,
2015-07-30 08:17:00,63.9,59.0,30.01,NNW,340,2.3,0.0,84,0.00,OVC,,0.00,107.0,WeatherDisplay:10.37,2015-07-30 15:17:00,
2015-07-30 08:22:00,64.0,58.7,30.01,NNW,339,0.0,0.0,83,0.00,OVC,,0.00,121.0,WeatherDisplay:10.37,2015-07-30 15:22:00,
2015-07-30 08:27:00,64.2,58.9,30.01,NNW,339,0.0,0.0,83,0.00,OVC,,0.00,128.0,WeatherDisplay:10.37,2015-07-30 15:27:00,
2015-07-30 08:42:00,64.3,59.0,30.01,NNW,339,0.0,0.0,83,0.00,OVC,,0.00,167.0,WeatherDisplay:10.37,2015-07-30 15:42:00,
2015-07-30 08:47:00,64.7,59.4,30.02,NNW,339,0.0,0.0,83,0.00,OVC,,0.00,169.0,WeatherDisplay:10.37,2015-07-30 15:47:00,
2015-07-30 08:52:00,64.8,59.2,30.02,NNW,339,0.0,0.0,82,0.00,OVC,,0.00,199.0,WeatherDisplay:10.37,2015-07-30 15:52:00,
2015-07-30 08:57:00,65.0,59.4,30.02,NNW,339,3.5,0.0,82,0.00,OVC,,0.00,186.0,WeatherDisplay:10.37,2015-07-30 15:57:00,
2015-07-30 09:02:00,65.2,59.2,30.02,NNW,339,0.0,0.0,81,0.00,OVC,,0.00,199.0,WeatherDisplay:10.37,2015-07-30 16:02:00,
2015-07-30 09:07:00,65.2,59.2,30.02,NNW,329,3.5,3.5,81,0.00,OVC,,0.00,223.0,WeatherDisplay:10.37,2015-07-30 16:07:00,
2015-07-30 09:12:00,65.2,59.2,30.02,NNW,329,0.0,0.0,81,0.00,OVC,,0.00,244.0,WeatherDisplay:10.37,2015-07-30 16:12:00,
2015-07-30 09:17:00,65.5,59.5,30.02,NNW,329,0.0,0.0,81,0.00,OVC,,0.00,227.0,WeatherDisplay:10.37,2015-07-30 16:17:00,
2015-07-30 09:22:00,65.6,59.3,30.02,NNW,329,2.3,2.3,80,0.00,OVC,,0.00,269.0,WeatherDisplay:10.37,2015-07-30 16:22:00,
2015-07-30 09:27:00,65.6,59.3,30.02,NNW,329,0.0,0.0,80,0.00,OVC,,0.00,315.0,WeatherDisplay:10.37,2015-07-30 16:27:00,
2015-07-30 09:32:00,65.8,59.5,30.02,WNW,283,3.5,3.5,80,0.00,OVC,,0.00,350.0,WeatherDisplay:10.37,2015-07-30 16:32:00,
2015-07-30 09:37:00,65.8,59.5,30.02,WNW,282,3.5,3.5,80,0.00,OVC,,0.00,304.0,WeatherDisplay:10.37,2015-07-30 16:37:00,
2015-07-30 09:42:00,65.8,59.5,30.02,WNW,282,0.0,0.0,80,0.00,OVC,,0.00,378.0,WeatherDisplay:10.37,2015-07-30 16:42:00,
2015-07-30 09:47:00,66.1,59.7,30.02,West,281,1.2,0.0,80,0.00,OVC,,0.00,403.0,WeatherDisplay:10.37,2015-07-30 16:47:00,
2015-07-30 09:52:00,66.3,59.2,30.02,West,281,4.6,4.6,78,0.00,OVC,,0.00,360.0,WeatherDisplay:10.37,2015-07-30 16:52:00,
2015-07-30 09:57:00,66.3,59.6,30.02,West,281,3.5,3.5,79,0.00,OVC,,0.00,325.0,WeatherDisplay:10.37,2015-07-30 16:57:00,
2015-07-30 10:02:00,66.8,60.1,30.02,WNW,282,4.6,4.6,79,0.00,OVC,,0.00,812.0,WeatherDisplay:10.37,2015-07-30 17:02:00,
2015-07-30 10:07:00,67.4,59.9,30.02,WNW,282,1.2,0.0,77,0.00,OVC,,0.00,772.0,WeatherDisplay:10.37,2015-07-30 17:07:00,
2015-07-30 10:12:00,67.9,60.1,30.02,WNW,286,3.5,3.5,76,0.00,OVC,,0.00,823.0,WeatherDisplay:10.37,2015-07-30 17:12:00,
2015-07-30 10:17:00,68.3,60.1,30.01,WNW,297,3.5,3.6,75,0.00,OVC,,0.00,475.0,WeatherDisplay:10.37,2015-07-30 17:17:00,
2015-07-30 10:22:00,68.1,59.9,30.01,West,273,4.0,4.0,75,0.00,OVC,,0.00,475.0,WeatherDisplay:10.37,2015-07-30 17:22:00,
2015-07-30 10:27:00,68.3,60.1,30.01,West,278,4.6,4.6,75,0.00,OVC,,0.00,406.0,WeatherDisplay:10.37,2015-07-30 17:27:00,
2015-07-30 10:32:00,68.4,60.2,30.02,West,277,5.8,5.8,75,0.00,OVC,,0.00,726.0,WeatherDisplay:10.37,2015-07-30 17:32:00,
2015-07-30 10:37:00,68.6,60.0,30.02,West,274,11.5,11.5,74,0.00,OVC,,0.00,374.0,WeatherDisplay:10.37,2015-07-30 17:37:00,
2015-07-30 10:47:00,68.4,60.9,30.02,West,271,4.6,4.6,77,0.00,OVC,,0.00,737.0,WeatherDisplay:10.37,2015-07-30 17:47:00,
2015-07-30 10:52:00,68.6,60.4,30.02,West,266,5.8,5.8,75,0.00,OVC,,0.00,726.0,WeatherDisplay:10.37,2015-07-30 17:52:00,
2015-07-30 10:57:00,68.8,60.6,30.02,WNW,286,11.5,11.5,75,0.00,OVC,,0.00,752.0,WeatherDisplay:10.37,2015-07-30 17:57:00,
2015-07-30 11:02:00,68.6,60.4,30.02,WNW,287,10.4,10.4,75,0.00,OVC,,0.00,758.0,WeatherDisplay:10.37,2015-07-30 18:02:00,
2015-07-30 11:07:00,68.9,60.6,30.02,West,259,9.2,9.2,75,0.00,OVC,,0.00,765.0,WeatherDisplay:10.37,2015-07-30 18:07:00,
2015-07-30 11:12:00,69.1,60.1,30.02,West,264,10.4,10.4,73,0.00,FEW,,0.00,780.0,WeatherDisplay:10.37,2015-07-30 18:12:00,
2015-07-30 11:17:00,69.3,60.7,30.02,West,272,10.4,10.4,74,0.00,FEW,,0.00,789.0,WeatherDisplay:10.37,2015-07-30 18:17:00,
2015-07-30 11:22:00,69.6,60.2,30.02,West,276,10.4,10.4,72,0.00,FEW,,0.00,800.0,WeatherDisplay:10.37,2015-07-30 18:22:00,
2015-07-30 11:27:00,69.8,60.8,30.02,West,261,10.4,10.4,73,0.00,FEW,,0.00,810.0,WeatherDisplay:10.37,2015-07-30 18:27:00,
2015-07-30 11:32:00,70.4,60.9,30.02,West,281,9.2,9.3,72,0.00,FEW,,0.00,816.0,WeatherDisplay:10.37,2015-07-30 18:32:00,
2015-07-30 11:37:00,70.9,61.0,30.02,West,266,11.5,11.5,71,0.00,FEW,,0.00,826.0,WeatherDisplay:10.37,2015-07-30 18:37:00,
2015-07-30 11:42:00,71.8,61.1,30.02,West,271,9.2,9.2,69,0.00,FEW,,0.00,833.0,WeatherDisplay:10.37,2015-07-30 18:42:00,
2015-07-30 11:48:00,72.0,60.4,30.02,West,275,11.5,11.5,67,0.00,FEW,,0.00,840.0,WeatherDisplay:10.37,2015-07-30 18:48:00,
2015-07-30 11:53:00,72.0,60.4,30.02,West,278,10.4,10.4,67,0.00,FEW,,0.00,846.0,WeatherDisplay:10.37,2015-07-30 18:53:00,
2015-07-30 11:58:00,72.0,60.4,30.02,WNW,282,11.5,11.5,67,0.00,FEW,,0.00,851.0,WeatherDisplay:10.37,2015-07-30 18:58:00,
2015-07-30 12:03:00,71.8,61.1,30.02,West,268,11.5,11.5,69,0.00,FEW,,0.00,860.0,WeatherDisplay:10.37,2015-07-30 19:03:00,
2015-07-30 12:08:00,72.0,60.4,30.02,West,274,9.2,9.2,67,0.00,FEW,,0.00,865.0,WeatherDisplay:10.37,2015-07-30 19:08:00,
2015-07-30 12:13:00,72.7,61.1,30.02,West,270,11.5,11.5,67,0.00,CLR,,0.00,874.0,WeatherDisplay:10.37,2015-07-30 19:13:00,
2015-07-30 12:18:00,72.7,60.7,30.01,West,260,11.5,11.5,66,0.00,CLR,,0.00,879.0,WeatherDisplay:10.37,2015-07-30 19:18:00,
2015-07-30 12:23:00,72.5,60.5,30.01,West,276,11.5,11.5,66,0.00,CLR,,0.00,882.0,WeatherDisplay:10.37,2015-07-30 19:23:00,
2015-07-30 12:28:00,72.5,60.1,30.01,West,263,11.5,11.5,65,0.00,CLR,,0.00,886.0,WeatherDisplay:10.37,2015-07-30 19:28:00,
2015-07-30 12:33:00,72.7,60.3,30.01,West,267,11.5,11.5,65,0.00,CLR,,0.00,891.0,WeatherDisplay:10.37,2015-07-30 19:33:00,
2015-07-30 12:38:00,72.8,60.3,30.01,West,268,10.4,10.4,65,0.00,CLR,,0.00,893.0,WeatherDisplay:10.37,2015-07-30 19:38:00,
2015-07-30 12:43:00,72.7,60.3,30.01,West,268,10.4,10.4,65,0.00,CLR,,0.00,895.0,WeatherDisplay:10.37,2015-07-30 19:43:00,
2015-07-30 12:48:00,72.7,60.7,30.01,West,262,12.0,12.0,66,0.00,CLR,,0.00,900.0,WeatherDisplay:10.37,2015-07-30 19:48:00,
2015-07-30 12:53:00,72.7,60.7,30.01,WSW,254,8.1,8.1,66,0.00,CLR,,0.00,898.0,WeatherDisplay:10.37,2015-07-30 19:53:00,
2015-07-30 12:58:00,73.2,60.7,30.01,West,259,5.8,5.8,65,0.00,CLR,,0.00,907.0,WeatherDisplay:10.37,2015-07-30 19:58:00,
2015-07-30 13:08:00,73.7,60.8,30.00,West,261,11.5,11.5,64,0.00,CLR,,0.00,907.0,WeatherDisplay:10.37,2015-07-30 20:08:00,
2015-07-30 13:13:00,74.4,61.0,30.00,West,280,12.7,12.7,63,0.00,CLR,,0.00,905.0,WeatherDisplay:10.37,2015-07-30 20:13:00,
2015-07-30 13:18:00,74.6,60.3,30.00,West,280,12.7,12.7,61,0.00,CLR,,0.00,909.0,WeatherDisplay:10.37,2015-07-30 20:18:00,
2015-07-30 13:23:00,74.6,61.2,30.00,West,259,11.5,11.5,63,0.00,CLR,,0.00,907.0,WeatherDisplay:10.37,2015-07-30 20:23:00,
2015-07-30 13:28:00,75.1,61.2,30.00,West,274,10.4,10.4,62,0.00,CLR,,0.00,905.0,WeatherDisplay:10.37,2015-07-30 20:28:00,
2015-07-30 13:33:00,75.1,60.7,30.00,West,279,11.5,11.5,61,0.00,CLR,,0.00,905.0,WeatherDisplay:10.37,2015-07-30 20:33:00,
2015-07-30 13:38:00,75.1,60.7,30.00,WSW,258,11.5,11.5,61,0.00,CLR,,0.00,907.0,WeatherDisplay:10.37,2015-07-30 20:38:00,
2015-07-30 13:43:00,75.1,60.7,30.00,WSW,258,11.0,11.0,61,0.00,CLR,,0.00,898.0,WeatherDisplay:10.37,2015-07-30 20:43:00,
2015-07-30 13:48:00,76.0,61.1,29.99,West,266,11.5,11.5,60,0.00,CLR,,0.00,900.0,WeatherDisplay:10.37,2015-07-30 20:48:00,
2015-07-30 13:53:00,75.8,61.4,29.99,WNW,291,10.4,10.4,61,0.00,CLR,,0.00,896.0,WeatherDisplay:10.37,2015-07-30 20:53:00,
2015-07-30 13:58:00,76.1,61.2,29.99,West,269,11.5,11.5,60,0.00,CLR,,0.00,891.0,WeatherDisplay:10.37,2015-07-30 20:58:00,
2015-07-30 14:03:00,76.1,60.7,29.99,West,271,15.0,15.0,59,0.00,CLR,,0.00,886.0,WeatherDisplay:10.37,2015-07-30 21:03:00,
2015-07-30 14:08:00,76.5,61.1,29.99,West,269,11.5,11.5,59,0.00,CLR,,0.00,886.0,WeatherDisplay:10.37,2015-07-30 21:08:00,
2015-07-30 14:13:00,76.5,61.6,29.99,West,270,13.8,13.8,60,0.00,CLR,,0.00,881.0,WeatherDisplay:10.37,2015-07-30 21:13:00,
2015-07-30 14:18:00,76.3,61.4,29.98,West,263,11.5,11.5,60,0.00,CLR,,0.00,877.0,WeatherDisplay:10.37,2015-07-30 21:18:00,
2015-07-30 14:23:00,76.7,61.3,29.98,West,279,12.7,12.7,59,0.00,CLR,,0.00,874.0,WeatherDisplay:10.37,2015-07-30 21:23:00,
2015-07-30 14:28:00,76.5,61.6,29.98,West,274,13.8,13.8,60,0.00,CLR,,0.00,867.0,WeatherDisplay:10.37,2015-07-30 21:28:00,
2015-07-30 14:33:00,76.0,61.6,29.97,WNW,282,12.7,12.7,61,0.00,CLR,,0.00,861.0,WeatherDisplay:10.37,2015-07-30 21:33:00,
2015-07-30 14:38:00,76.7,60.8,29.97,West,266,10.4,10.4,58,0.00,CLR,,0.00,856.0,WeatherDisplay:10.37,2015-07-30 21:38:00,
2015-07-30 14:43:00,76.5,61.6,29.97,West,263,10.4,10.4,60,0.00,CLR,,0.00,847.0,WeatherDisplay:10.37,2015-07-30 21:43:00,
2015-07-30 14:48:00,76.7,61.8,29.97,West,268,11.5,11.5,60,0.00,CLR,,0.00,842.0,WeatherDisplay:10.37,2015-07-30 21:48:00,
2015-07-30 14:53:00,77.0,61.1,29.97,West,277,11.5,11.5,58,0.00,CLR,,0.00,835.0,WeatherDisplay:10.37,2015-07-30 21:53:00,
2015-07-30 14:58:00,77.4,61.9,29.97,WNW,283,10.4,10.4,59,0.00,CLR,,0.00,830.0,WeatherDisplay:10.37,2015-07-30 21:58:00,
2015-07-30 15:03:00,77.6,61.7,29.96,WNW,283,12.7,12.7,58,0.00,CLR,,0.00,823.0,WeatherDisplay:10.37,2015-07-30 22:03:00,
2015-07-30 15:08:00,77.4,61.9,29.96,West,262,11.5,11.5,59,0.00,CLR,,0.00,814.0,WeatherDisplay:10.37,2015-07-30 22:08:00,
2015-07-30 15:13:00,77.6,61.7,29.96,West,273,11.5,11.5,58,0.00,CLR,,0.00,805.0,WeatherDisplay:10.37,2015-07-30 22:13:00,
2015-07-30 15:18:00,77.6,61.7,29.95,West,275,13.0,13.0,58,0.00,CLR,,0.00,796.0,WeatherDisplay:10.37,2015-07-30 22:18:00,
2015-07-30 15:28:00,77.4,61.5,29.95,WSW,256,12.7,12.7,58,0.00,CLR,,0.00,779.0,WeatherDisplay:10.37,2015-07-30 22:28:00,
2015-07-30 15:33:00,77.2,61.8,29.95,WSW,257,11.5,11.5,59,0.00,CLR,,0.00,766.0,WeatherDisplay:10.37,2015-07-30 22:33:00,
2015-07-30 15:38:00,77.2,61.3,29.95,West,272,13.8,13.8,58,0.00,CLR,,0.00,758.0,WeatherDisplay:10.37,2015-07-30 22:38:00,
2015-07-30 15:43:00,77.6,61.7,29.95,West,279,13.8,13.8,58,0.00,CLR,,0.00,747.0,WeatherDisplay:10.37,2015-07-30 22:43:00,
2015-07-30 15:48:00,77.6,61.2,29.94,West,268,16.1,16.1,57,0.00,CLR,,0.00,733.0,WeatherDisplay:10.37,2015-07-30 22:48:00,
2015-07-30 15:53:00,77.7,61.3,29.94,WNW,283,17.3,17.3,57,0.00,CLR,,0.00,722.0,WeatherDisplay:10.37,2015-07-30 22:53:00,
2015-07-30 16:03:00,77.6,61.2,29.94,WNW,283,15.0,15.0,57,0.00,CLR,,0.00,698.0,WeatherDisplay:10.37,2015-07-30 23:03:00,
2015-07-30 16:08:00,77.9,60.9,29.94,WNW,293,10.4,10.4,56,0.00,CLR,,0.00,689.0,WeatherDisplay:10.37,2015-07-30 23:08:00,
2015-07-30 16:13:00,77.7,60.8,29.94,WNW,285,17.3,17.3,56,0.00,CLR,,0.00,675.0,WeatherDisplay:10.37,2015-07-30 23:13:00,
2015-07-30 16:18:00,77.7,60.8,29.94,West,266,13.8,13.8,56,0.00,CLR,,0.00,664.0,WeatherDisplay:10.37,2015-07-30 23:18:00,
2015-07-30 16:23:00,77.6,61.2,29.94,West,268,10.4,10.4,57,0.00,CLR,,0.00,652.0,WeatherDisplay:10.37,2015-07-30 23:23:00,
2015-07-30 16:28:00,77.9,60.9,29.94,West,262,11.5,11.5,56,0.00,CLR,,0.00,640.0,WeatherDisplay:10.37,2015-07-30 23:28:00,
2015-07-30 16:33:00,77.6,60.7,29.94,WNW,291,13.8,13.8,56,0.00,CLR,,0.00,621.0,WeatherDisplay:10.37,2015-07-30 23:33:00,
2015-07-30 16:38:00,77.0,60.1,29.94,WNW,285,13.8,13.8,56,0.00,CLR,,0.00,601.0,WeatherDisplay:10.37,2015-07-30 23:38:00,
2015-07-30 16:43:00,76.8,60.4,29.94,West,266,11.5,11.5,57,0.00,CLR,,0.00,592.0,WeatherDisplay:10.37,2015-07-30 23:43:00,
2015-07-30 16:48:00,76.3,59.9,29.94,WNW,289,10.4,10.4,57,0.00,CLR,,0.00,575.0,WeatherDisplay:10.37,2015-07-30 23:48:00,
2015-07-30 16:53:00,76.5,59.6,29.94,WNW,293,11.5,11.5,56,0.00,CLR,,0.00,564.0,WeatherDisplay:10.37,2015-07-30 23:53:00,
2015-07-30 16:58:00,76.7,60.3,29.94,West,274,9.2,9.2,57,0.00,CLR,,0.00,548.0,WeatherDisplay:10.37,2015-07-30 23:58:00,
2015-07-30 17:03:00,76.3,59.4,29.94,WNW,293,12.7,12.7,56,0.00,CLR,,0.00,531.0,WeatherDisplay:10.37,2015-07-31 00:03:00,
2015-07-30 17:08:00,75.6,59.8,29.94,West,277,15.0,15.0,58,0.00,CLR,,0.00,515.0,WeatherDisplay:10.37,2015-07-31 00:08:00,
2015-07-30 17:13:00,75.8,59.5,29.94,West,268,11.5,11.5,57,0.00,CLR,,0.00,504.0,WeatherDisplay:10.37,2015-07-31 00:13:00,
2015-07-30 17:18:00,75.4,59.1,29.94,NW,308,13.8,13.8,57,0.00,CLR,,0.00,489.0,WeatherDisplay:10.37,2015-07-31 00:18:00,
2015-07-30 17:23:00,74.9,59.1,29.94,WNW,284,15.0,15.0,58,0.00,CLR,,0.00,475.0,WeatherDisplay:10.37,2015-07-31 00:23:00,
2015-07-30 17:28:00,74.6,59.3,29.94,WNW,291,16.1,16.1,59,0.00,CLR,,0.00,464.0,WeatherDisplay:10.37,2015-07-31 00:28:00,
2015-07-30 17:33:00,74.2,58.9,29.94,WNW,283,11.5,11.5,59,0.00,CLR,,0.00,448.0,WeatherDisplay:10.37,2015-07-31 00:33:00,
2015-07-30 17:38:00,74.4,58.7,29.94,WNW,299,12.7,12.7,58,0.00,CLR,,0.00,434.0,WeatherDisplay:10.37,2015-07-31 00:38:00,
2015-07-30 17:43:00,74.2,58.9,29.94,West,268,11.5,11.5,59,0.00,CLR,,0.00,410.0,WeatherDisplay:10.37,2015-07-31 00:43:00,
2015-07-30 17:48:00,74.2,59.4,29.94,WNW,286,11.5,11.5,60,0.00,CLR,,0.00,388.0,WeatherDisplay:10.37,2015-07-31 00:48:00,
2015-07-30 17:53:00,73.7,58.9,29.94,WNW,302,12.7,12.7,60,0.00,CLR,,0.00,381.0,WeatherDisplay:10.37,2015-07-31 00:53:00,
2015-07-30 17:58:00,73.5,59.2,29.94,WNW,291,12.7,12.7,61,0.00,CLR,,0.00,369.0,WeatherDisplay:10.37,2015-07-31 00:58:00,
2015-07-30 18:03:00,73.3,59.0,29.94,West,281,12.7,12.7,61,0.00,CLR,,0.00,355.0,WeatherDisplay:10.37,2015-07-31 01:03:00,
2015-07-30 18:08:00,73.2,58.9,29.94,West,273,11.5,11.5,61,0.00,CLR,,0.00,339.0,WeatherDisplay:10.37,2015-07-31 01:08:00,
2015-07-30 18:13:00,73.3,59.5,29.94,NNW,334,11.5,11.5,62,0.00,CLR,,0.00,325.0,WeatherDisplay:10.37,2015-07-31 01:13:00,
2015-07-30 18:18:00,73.2,59.4,29.94,West,262,11.5,11.5,62,0.00,CLR,,0.00,311.0,WeatherDisplay:10.37,2015-07-31 01:18:00,
2015-07-30 18:23:00,72.7,58.9,29.94,West,279,6.9,6.9,62,0.00,CLR,,0.00,294.0,WeatherDisplay:10.37,2015-07-31 01:23:00,
2015-07-30 18:33:00,71.6,59.2,29.94,West,270,11.5,11.5,65,0.00,CLR,,0.00,257.0,WeatherDisplay:10.37,2015-07-31 01:33:00,
2015-07-30 18:38:00,71.1,58.7,29.94,West,281,15.0,15.0,65,0.00,CLR,,0.00,234.0,WeatherDisplay:10.37,2015-07-31 01:38:00,
2015-07-30 18:43:00,71.5,59.1,29.94,West,273,11.5,11.5,65,0.00,CLR,,0.00,223.0,WeatherDisplay:10.37,2015-07-31 01:43:00,
2015-07-30 18:48:00,70.9,58.5,29.94,West,262,12.7,12.7,65,0.00,CLR,,0.00,213.0,WeatherDisplay:10.37,2015-07-31 01:48:00,
2015-07-30 18:53:00,70.8,59.3,29.94,West,272,11.5,11.5,67,0.00,CLR,,0.00,200.0,WeatherDisplay:10.37,2015-07-31 01:53:00,
2015-07-30 18:58:00,70.4,58.9,29.94,WNW,283,11.5,11.5,67,0.00,CLR,,0.00,190.0,WeatherDisplay:10.37,2015-07-31 01:58:00,
2015-07-30 19:03:00,70.3,59.6,29.95,WNW,293,11.5,11.5,69,0.00,CLR,,0.00,172.0,WeatherDisplay:10.37,2015-07-31 02:03:00,
2015-07-30 19:13:00,69.9,59.3,29.95,NW,319,6.9,6.9,69,0.00,CLR,,0.00,134.0,WeatherDisplay:10.37,2015-07-31 02:13:00,